STARLINK-34309, 64167

Orbit data source: Space-Track

STARLINK-34309, 64167 is a payload satellite owned by SpaceX/Seattle (US) in SSO that was launched on Tue, 27 May 2025 UTC via an FALCON 9 launch vehicle from the Air Force Western Test Range (AFWTR). Payload-class satellites include a variety of spacecraft equipped with specific instruments for various scientific and technological missions. These include communications satellites like Starlink; space stations such as the ISS; scientific satellites like the Hubble; Earth observation satellites from companies like Planet Labs, Umbra, and HawkEye 360; GPS; miniature CubeSats for education and research; and military/defense satellites.

Loading next visibility...
Identifier
64167, 2025-112X
Orbit
SSO
Country
Flag of USUS
Related business
Manufacturer
SpaceX/Seattle
Mission
Operational Commercial Communications
Bus & Motor
STARLINK V2MO, Unknown motor
Mass
575 kg wet, ~530 kg dry
Launch date (UTC)
2025-05-27 (1 year ago)
Launch vehicle
FALCON 9
Launch site
Air Force Western Test Range (AFWTR)
Object type
Payload
Rocket body
Debris
Shape & HBR
Box + 2 Pan, 17.7 m
Radar Cross Section
36.964 m², Large (>1 m²)

Expand to show TLE details & history
Last TLE update: 14 hours ago

TLE from 14 hours ago
0 STARLINK-34309
1 64167U 25112X   26145.13477146 -.00014179  00000-0 -98141-3 0  9996
2 64167  97.4512 196.5484 0001817 162.3477 197.7814 15.05617349 54814
Epoch: 2026-05-25T03:14Z
TLE epoch observation values (Epoch: 2026-05-25T03:14:04.254Z)
Latitude
0.00003°
Longitude
-94.69625°
Altitude
553.88 km
Speed
7.584 km/s
True Right ascension
13h 06m 11s
True Declination
0° 00' 00"
Sunlit
Object was in full shadow at epoch
Visualization orbit readout
Latitude
Unknown
Longitude
Unknown
Altitude
Unknown
Speed
Unknown
Apparent Right ascension
Unknown
Apparent Declination
Unknown
Sunlit
N/A
Visualization observer readout
Local Sidereal Time
02:49:43
Azimuth
Unknown
Elevation
Unknown
Doppler factor
Unknown
Orbital elements
Apogee altitude
547.857 km
Perigee altitude
545.34 km
Semi-major axis
6,924.735 km
Eccentricity
0.00018
Inclination
97.4512°
RAAN
196.5484°
Arg. of periapsis
162.3477°
True anomaly
197.77504°
Mean anomaly
197.7814°
Eccentric anomaly
197.77822°
Mean motion
3.7665 °/min
Orbital period
95.58 mins
BSTAR
-0.00098141
Loading maneuver chart data...
Computing Atmospheric mass density...
Loading historical data...
Loading historical data...
Loading historical data...
Loading historical data...
Loading historical data...
Loading historical data...
Loading historical data...

Documentation

Showing up to 5 results
|